Location: Hains Lake
(37.8540°N, 99.8578°W)
Time: 08:59:20
(UTC+00:00)

Vanguard 1 - Pass Details

Date: 07 December 2021
Orbit: 652 x 3830 km, 34.2° (Epoch: 24 January)

Event Time Altitude Azimuth Distance (km) Brightness Sun altitude
Exits shadow 10:53:19 45° 261° (W) 4,288 12.7 -32.5°
Maximum altitude 11:00:53 62° 207° (SSW) 3,407 12.5 -31.0°
Drops below altitude 10° 11:15:08 10° 131° (SE) 4,681 14.2 -28.2°
Sets 11:18:05 0° 127° (SE) 5,342 14.7 -27.7°
